This is the latest recevied weather packets stored in our database for station/object KC0UFP. If no packets are shown the sender has not sent any weather packets the latest 10 day(s).
| Time | Temp. | Humidity | Pressure | Rain* | Wind** | Luminosity | Snow |
|---|---|---|---|---|---|---|---|
| 1777464003 | 16.11° C | 96% | 1013 hPa | 0 mm | - | 17 W/m² | - |
| 1777463698 | 16.11° C | 96% | 1013.2 hPa | 0 mm | - | 14 W/m² | - |
| 1777463393 | 16.11° C | 96% | 1013 hPa | 0 mm | - | 16 W/m² | - |
| 1777463089 | 16.11° C | 97% | 1012.9 hPa | 0 mm | - | 12 W/m² | - |
| 1777462785 | 16.11° C | 98% | 1013.1 hPa | 0 mm | - | 9 W/m² | - |
| 1777462480 | 16.11° C | 98% | 1012.8 hPa | 0 mm | - | 9 W/m² | - |
| 1777462177 | 16.11° C | 99% | 1012.7 hPa | 0 mm | - | 5 W/m² | - |
| 1777461873 | 16.11° C | 99% | 1012.5 hPa | 0 mm | - | 4 W/m² | - |
| 1777461571 | 16.11° C | 99% | 1012.3 hPa | 0 mm | - | 6 W/m² | - |
| 1777461266 | 16.11° C | 99% | 1011.8 hPa | 0 mm | - | 3 W/m² | - |
| 1777460961 | 16.11° C | 99% | 1011.7 hPa | 0 mm | - | 1 W/m² | - |
| 1777460657 | 16.11° C | 99% | 1012.2 hPa | 0 mm | - | 0 W/m² | - |
| 1777460353 | 16.11° C | 99% | 1011.9 hPa | 0 mm | - | 0 W/m² | - |
| 1777460049 | 16.11° C | 99% | 1011.8 hPa | 0 mm | - | 0 W/m² | - |
| 1777459747 | 16.11° C | 99% | 1011.7 hPa | 0 mm | - | 0 W/m² | - |
| 1777459443 | 16.11° C | 99% | 1011.7 hPa | 0 mm | - | 0 W/m² | - |
| 1777459141 | 16.11° C | 99% | 1011.5 hPa | 0 mm | - | 0 W/m² | - |
| 1777458838 | 16.11° C | 99% | 1011.4 hPa | 0 mm | - | 0 W/m² | - |
| 1777458534 | 16.11° C | 99% | 1011.5 hPa | 0 mm | - | 0 W/m² | - |
| 1777458231 | 16.11° C | 99% | 1012.2 hPa | 0 mm | - | 0 W/m² | - |
| 1777457926 | 16.11° C | 99% | 1012.3 hPa | 0 mm | - | 0 W/m² | - |
| 1777457623 | 16.11° C | 99% | 1012.5 hPa | 0 mm | - | 0 W/m² | - |
| 1777457317 | 16.11° C | 99% | 1012.2 hPa | 0 mm | - | 0 W/m² | - |
| 1777457013 | 16.11° C | 99% | 1012.2 hPa | 0 mm | - | 0 W/m² | - |
| 1777456709 | 16.11° C | 99% | 1012.2 hPa | 0 mm | - | 0 W/m² | - |
* Rain latest hour (hover to see other rain measurements)
** Current wind speed in m/s (hover to see current wind gust speed)